Skip Page Navigation
NASA JPL Caltech
NASA Logo - Jet Propulsion Laboratory + View the NASA Portal
+ Center for Near-Earth Object Studies
JPL Home Earth Solar System Stars & Galaxies Technology
JPL Solar System Dynamics
BODIES ORBITS EPHEMERIDES TOOLS PHYSICAL DATA DISCOVERY FAQ SITE MAP
IMPORTANT: The SSD Announcement email list is now available. Major changes are coming in the near future, including possible hostname and/or URL changes. To be notified of such changes, subscribe to this email list.

Please visit this page for more details.


JPL Small-Body Database Browser
Search: [ help ]  
142555 (2002 TB58)
Classification: Amor [NEO]          SPK-ID: 2142555
Ephemeris | Orbit Diagram | Orbital Elements | Mission Design | Physical Parameters | Discovery Circumstances | Close-Approach Data ]

[ show orbit diagram ]
Orbital Elements at Epoch 2458600.5 (2019-Apr-27.0) TDB
Reference: JPL 137 (heliocentric ecliptic J2000)
 Element Value Uncertainty (1-sigma)   Units 
e .565305303705798 3.9542e-08  
a 2.628287975724749 6.4642e-09 au
q 1.142502843381373 1.0407e-07 au
i 23.41178463465626 1.2046e-05 deg
node 219.3463925880616 1.5041e-05 deg
peri 267.9277617478003 1.6655e-05 deg
M 297.918918406439 4.6945e-06 deg
tp 2458868.888944946322
(2020-Jan-20.38894495)
2.0362e-05 TDB
period 1556.352075391311
4.26
5.7417e-06
1.572e-08
d
yr
n .2313101294316621 8.5335e-10 deg/d
Q 4.114073108068125 1.0118e-08 au
  Orbit Determination Parameters
   # obs. used (total)      553  
   data-arc span      6330 days (17.33 yr)  
   first obs. used      2002-09-05  
   last obs. used      2020-01-04  
   planetary ephem.      DE431  
   SB-pert. ephem.      SB431-N16  
   condition code      0  
   norm. resid. RMS      .54162  
   source      ORB  
   producer      Otto Matic  
   solution date      2020-Jan-05 06:00:06  

Additional Information
 Earth MOID = .422893 au 
 Jupiter MOID = 2.13168 au 
 T_jup = 3.056 
[ show covariance matrix ]

Ephemeris | Orbit Diagram | Orbital Elements | Mission Design | Physical Parameters | Discovery Circumstances | Close-Approach Data ]

Physical Parameter Table
Parameter Symbol Value Units Sigma Reference Notes
absolute magnitude H 16.2   n/a MPO266468  

142555 (2002 TB58)          Discovered 2002-Oct-03 by LINEAR at Socorro
Reference: 20061205/Numbers.arcLast Updated: 2006-12-13

[ show close-approach data ]
Ephemeris | Orbit Diagram | Orbital Elements | Mission Design | Physical Parameters | Discovery Circumstances | Close-Approach Data ]
ABOUT SSD CREDITS/AWARDS PRIVACY/COPYRIGHT GLOSSARY LINKS
FirstGov 2020-Jan-21 06:35 UT
(server date/time)  
NASA Home Page
Site Manager:   Ryan S. Park
Webmaster  Alan B. Chamberlin